Вернуться в каталог

STARLINK-5018

АктивенСвязьVLEO
NORAD 53929·PAYLOAD·🇺🇸 United States

Запущен Sep 24, 2022 с Cape Canaveral Space Force Station

Loading…

Ближайшие Пролёты (ближайшие 24 часа)

TLE

СвежийSource: CelesTrak SupGP

Эпоха: Sep 15, 2026, 02:38 UTC

1 53929C 22119AV  26258.11020833  .00011387  00000+0  36627-3 0  2588
2 53929  53.1590 172.8826 0001522  84.3267  48.2923 15.31687919    16

Отслеживайте STARLINK-5018 в реальном времени с AllMySat

Download on the App Store